Location: Katowice
(50.2611°N, 19.0242°E)
Time: 15:31:43
(UTC+02:00)

Explorer 11/Cluster Stage 4 - All Passes

Search period start: 23 July 2019 00:00
Search period end: 02 August 2019 00:00
Orbit: 467 x 1260 km, 28.8° (Epoch: 22 July)

Date Brightness Start Highest point End Pass type
(mag) Time Alt. Az. Time Alt. Az. Time Alt. Az.
23 Jul - 02:27:00 10° S 02:29:10 11° S 02:31:25 10° SSE visible
23 Jul - 04:13:53 10° SSW 04:16:42 12° S 04:19:37 10° SSE visible
24 Jul - 02:16:26 10° S 02:18:16 11° S 02:20:10 10° SSE visible
24 Jul - 04:03:41 10° SSW 04:05:46 11° S 04:07:54 10° S visible
25 Jul - 02:06:08 10° S 02:07:22 11° S 02:08:40 10° SSE visible
25 Jul - 03:54:37 10° S 03:54:51 10° S 03:55:05 10° S visible
